Location: Passo di Treia
(43.2833°N, 13.3333°E)
Time: 17:01:02
(UTC+00:00)

RESURS DK-1 - Pass Details

Date: 09 December 2019
Orbit: 554 x 564 km, 69.9° (Epoch: 23 January)

Event Time Altitude Azimuth Distance (km) Brightness Sun altitude
Rises 16:27:30 0° 218° (SW) 2,721 7.0 -10.0°
Reaches altitude 10° 16:29:44 10° 224° (SW) 1,831 6.2 -10.4°
Maximum altitude 16:33:42 49° 300° (WNW) 727 3.2 -11.1°
Drops below altitude 10° 16:37:43 10° 16° (NNE) 1,848 4.7 -11.8°
Enters shadow 16:38:37 - 19° (NNE) 2,201 5.0 -11.9°
